Regional Weather Roundup
Issued by NWS Tiyan, Guam

Home | Current Version | Previous Version | Text Only | Print | Product List | Glossary On
Versions: 1 2 3 4 5 6 7 8 9 10 11 12 13 14 15 16 17 18 19 20 21 22 23 24 25 26 27
000
ASGM40 PGUM 010312
RWRGUM
WEATHER ROUNDUP FOR THE MARIANAS
NATIONAL WEATHER SERVICE TIYAN GU
100 PM CHST MON MAY 01 2017

GUZ001>004-010400-
MARIANA ISLANDS-

CITY           SKY/WX    TMP DP  RH WIND       PRES   REMARKS
GUAM AIRPORT   MOSUNNY   88  73  62 E14       29.94F HX  96
ANDERSEN AFB   MOSUNNY   84  75  74 E13       29.95F HX  92
ROTA AIRPORT   MOSUNNY   84  75  74 E14       29.94F HX  92
TINIAN AP      MOSUNNY   86  73  66 E15       29.93F HX  93
SAIPAN AP      MOSUNNY   88  75  66 E13       29.93F HX  97

$$





USA.gov is the U.S. government's official web portal to all federal, state and local government web resources and services.